Skip Page Navigation
NASA JPL Caltech
NASA Logo - Jet Propulsion Laboratory + View the NASA Portal
+ Center for Near-Earth Object Studies
JPL Home Earth Solar System Stars & Galaxies Technology
JPL Solar System Dynamics
BODIES ORBITS EPHEMERIDES TOOLS PHYSICAL DATA DISCOVERY FAQ SITE MAP

Significant website upgrade scheduled for September 27. More details available here.

JPL Small-Body Database Browser
Search: [ help ]  
52271 Lecorbusier (1988 RP3)
Classification: Main-belt Asteroid          SPK-ID: 2052271
Ephemeris | Orbit Diagram | Orbital Elements | Mission Design | Physical Parameters | Discovery Circumstances ]

[ hide orbit diagram ]

For accurate long-term ephemerides, please instead use our Horizons system.This orbit viewer was implemented using two-body methods, and hence should not be used for determining accurate long-term trajectories (over several years or decades) or planetary encounter circumstances.


Orbital Elements at Epoch 2459396.5 (2021-Jul-01.0) TDB
Reference: JPL 37 (heliocentric ecliptic J2000)
 Element Value Uncertainty (1-sigma)   Units 
e .1819810785852782 4.6702e-08  
a 2.587095872502469 1.3687e-08 au
q 2.116293375220948 1.2687e-07 au
i 13.24403366914455 5.464e-06 deg
node 357.6636205417868 1.4452e-05 deg
peri 35.79414903510593 1.9938e-05 deg
M 294.7165994641325 1.4978e-05 deg
tp 2459672.124284205709
(2022-Apr-02.62428421)
6.4586e-05 TDB
period 1519.90768709329
4.16
1.2062e-05
3.302e-08
d
yr
n .2368564900730735 1.8797e-09 deg/d
Q 3.05789836978399 1.6178e-08 au
  Orbit Determination Parameters
   # obs. used (total)      1807  
   data-arc span      12023 days (32.92 yr)  
   first obs. used      1988-09-08  
   last obs. used      2021-08-09  
   planetary ephem.      DE441  
   SB-pert. ephem.      SB441-N16  
   condition code      0  
   norm. resid. RMS      .44823  
   source      ORB  
   producer      Otto Matic  
   solution date      2021-Aug-25 01:06:05  

Additional Information
 Earth MOID = 1.13356 au 
 Jupiter MOID = 2.46381 au 
 T_jup = 3.361 
[ hide covariance matrix ]
Orbital Elements at Epoch 2457277.5 (2015-Sep-12.0) TDB
Reference: JPL 37 (heliocentric ecliptic J2000)
 Element Value Uncertainty (1-sigma)   Units 
e .1819504682137794 4.623e-08  
q 2.115334655769658 1.2517e-07 au
tp 2456637.497667946903
(2013-Dec-10.99766795)
5.4144e-05 TDB
node 357.7107043058006 1.4459e-05 deg
peri 36.3270551506569 2.0037e-05 deg
i 13.24249495257874 5.463e-06 deg
  Orbit Determination Parameters
   # obs. used (total)      1807  
   data-arc span      12023 days (32.92 yr)  
   first obs. used      1988-09-08  
   last obs. used      2021-08-09  
   planetary ephem.      DE441  
   SB-pert. ephem.      SB441-N16  
   condition code      0  
   norm. resid. RMS      .44823  
   source      ORB  
   producer      Otto Matic  
   solution date      2021-Aug-25 01:06:05  

Additional Information
 Jupiter MOID = 2.46381 au 
 T_jup = 3.361 
Orbit Covariance (6×6)
  e q tp node peri i
e 2.137198436171495E-15 -5.769129776539978E-15 -1.464567611722893E-12 7.827655839525526E-15 -4.00440908234047E-13 -3.274752039464331E-16
q -5.769129776539978E-15 1.566730390983981E-14 3.944681385310693E-12 -2.148752674405666E-14 1.088836832808392E-12 1.327236900654317E-15
tp -1.464567611722893E-12 3.944681385310693E-12 2.931520790562699E-9 -1.112027268560601E-11 7.556083122136591E-10 4.357063013543325E-13
node 7.827655839525526E-15 -2.148752674405666E-14 -1.112027268560601E-11 2.090763250004126E-10 -2.05926600676432E-10 -1.214183374216686E-11
peri -4.00440908234047E-13 1.088836832808392E-12 7.556083122136591E-10 -2.05926600676432E-10 4.014740106745229E-10 1.20434740963466E-11
i -3.274752039464331E-16 1.327236900654317E-15 4.357063013543325E-13 -1.214183374216686E-11 1.20434740963466E-11 2.984393823613489E-11

Ephemeris | Orbit Diagram | Orbital Elements | Mission Design | Physical Parameters | Discovery Circumstances ]

Physical Parameter Table
Parameter Symbol Value Units Sigma Reference Notes
absolute magnitude H 13.73   n/a MPO636790  
diameter diameter 4.863 km 0.076 urn:nasa:pds:neowise_diameters_albedos::2.0[mainbelt] (http://adsabs.harvard.edu/abs/2011ApJ...741...68M)  
geometric albedo albedo 0.223   0.018 urn:nasa:pds:neowise_diameters_albedos::2.0[mainbelt] (http://adsabs.harvard.edu/abs/2011ApJ...741...68M)  

52271 Lecorbusier           Discovered 1988 Sept. 8 by F. Börngen at Tautenburg.
Swiss-French Le Corbusier (1887-1965) was one of the most influential architects and city planners of the modern age. In his numerous writings he presented his new ideas and conceptions of form.
NOTE: some special characters may not display properly (any characters within {} are an attempt to place the proper accent above a character)
Reference: 20030501/MPCPages.arcLast Updated: 2003-10-02

Alternate Designations
 1988 RP3 = 1999 GH53 
Ephemeris | Orbit Diagram | Orbital Elements | Mission Design | Physical Parameters | Discovery Circumstances ]
ABOUT SSD CREDITS/AWARDS PRIVACY/COPYRIGHT GLOSSARY LINKS
FirstGov 2021-Sep-20 16:23 UT
(server date/time)  
NASA Home Page
Site Manager:   Ryan S. Park
Webmaster  Alan B. Chamberlin